TimeEST,TemperatureF,Dew PointF,Humidity,Sea Level PressureIn,VisibilityMPH,Wind Direction,Wind SpeedMPH,Gust SpeedMPH,PrecipitationIn,Events,Conditions,WindDirDegrees,DateUTC
12:53 AM,30.0,21.9,72,30.25,10.0,Calm,Calm,-,N/A,,Clear,0,2013-02-10 05:53:00
1:53 AM,30.0,21.9,72,30.25,10.0,Calm,Calm,-,N/A,,Scattered Clouds,0,2013-02-10 06:53:00
2:53 AM,30.0,24.1,79,30.25,10.0,NE,4.6,-,N/A,,Mostly Cloudy,50,2013-02-10 07:53:00
3:53 AM,32.0,24.1,73,30.22,10.0,NNE,3.5,-,N/A,,Mostly Cloudy,30,2013-02-10 08:53:00
4:53 AM,32.0,25.0,75,30.23,10.0,Calm,Calm,-,N/A,,Mostly Cloudy,0,2013-02-10 09:53:00
5:53 AM,33.1,25.0,72,30.24,10.0,ENE,3.5,-,N/A,,Overcast,60,2013-02-10 10:53:00
6:53 AM,32.0,26.1,79,30.27,10.0,NNE,3.5,-,N/A,,Mostly Cloudy,30,2013-02-10 11:53:00
7:53 AM,34.0,26.1,73,30.26,10.0,ENE,4.6,-,N/A,,Overcast,70,2013-02-10 12:53:00
8:53 AM,37.9,28.0,68,30.28,10.0,NE,3.5,-,N/A,,Mostly Cloudy,40,2013-02-10 13:53:00
9:53 AM,46.0,27.0,47,30.25,10.0,ENE,3.5,-,N/A,,Mostly Cloudy,60,2013-02-10 14:53:00
10:53 AM,52.0,21.9,31,30.25,10.0,ESE,4.6,-,N/A,,Mostly Cloudy,120,2013-02-10 15:53:00
11:53 AM,57.9,15.1,19,30.20,10.0,SSE,10.4,19.6,N/A,,Scattered Clouds,150,2013-02-10 16:53:00
12:53 PM,59.0,12.9,16,30.17,10.0,SSW,13.8,19.6,N/A,,Mostly Cloudy,200,2013-02-10 17:53:00
1:53 PM,59.0,14.0,17,30.10,10.0,South,12.7,20.7,N/A,,Mostly Cloudy,180,2013-02-10 18:53:00
2:53 PM,57.9,14.0,18,30.11,10.0,SSE,11.5,21.9,N/A,,Overcast,150,2013-02-10 19:53:00
3:53 PM,55.9,15.1,20,30.08,10.0,SSE,8.1,-,N/A,,Overcast,150,2013-02-10 20:53:00
4:53 PM,55.0,16.0,22,30.11,10.0,South,17.3,26.5,N/A,,Overcast,180,2013-02-10 21:53:00
5:53 PM,50.0,30.9,48,30.14,8.0,South,10.4,-,0.00,Rain,Light Rain,170,2013-02-10 22:53:00
6:53 PM,45.0,37.0,74,30.15,9.0,SE,6.9,-,0.05,Rain,Light Rain,140,2013-02-10 23:53:00
7:53 PM,44.1,39.9,85,30.07,10.0,East,9.2,-,0.06,Rain,Light Rain,100,2013-02-11 00:53:00
8:53 PM,46.0,39.9,79,30.08,10.0,South,6.9,-,0.01,,Overcast,170,2013-02-11 01:53:00
9:53 PM,48.9,41.0,74,30.04,10.0,SE,8.1,-,N/A,,Overcast,130,2013-02-11 02:53:00
10:53 PM,48.9,41.0,74,30.00,10.0,SE,3.5,-,N/A,,Overcast,140,2013-02-11 03:53:00
11:53 PM,50.0,42.1,74,29.98,10.0,South,4.6,-,N/A,,Overcast,170,2013-02-11 04:53:00